sat.trackr.live / text

‹ back to catalog

STARLINK-11106 [DTC]

NORAD 59765 · 2024-091N

PAYLOAD ACTIVE UNKNOWN

§ Identity

Operator
Country
US
Launch date
2024-05-14
Launch site
AFWTR
Launch vehicle
Mass (kg)
RCS (m²)

Purposes: comms

External: N2YO · Heavens-Above · Gunter

§ Orbital elements

Epoch: 2026-05-24T13:26:38.868576Z

Period
91.74 min
Inclination
53.1588°
Eccentricity
0.0000852
Mean motion
15.69708233 rev/d
Perigee alt
359.2 km
Apogee alt
360.3 km
Semi-major
6,737.9 km
B*
1.9866e-5
RAAN
191.9548°
Arg perigee
76.5881°
Mean anomaly
283.5232°
Rev number
11,743

§ Raw data

STARLINK-11106 [DTC]1 59765U 24091N   26144.56017209  .00001819  00000+0  19866-4 0  99972 59765  53.1588 191.9548 0000852  76.5881 283.5232 15.69708233117436

JSON: /api/v1/satellites/59765 · /tle

For live sub-satellite position, see the globe view (requires WebGL).

§ Visibility from observer

Set your observer location to see the next 7 days of passes ≥ 10°. The values pass through the URL so the page stays shareable.

No JS? Fill the form by hand. The geolocation button needs JavaScript.